User: anonymous   Login
Location: Caltech
(34.1382°N, 118.1253°W)
Time: 02:29:40
(UTC-07:00)
Language:

Cosmos-2242 - Orbit

View from above orbital plane
View from above orbital plane
View from above satellite
View from above satellite

Ground track
Ground track

The orbit data is extracted from the following two-line orbital elements,

1 22626U 93024A   15239.67965242  .00000541  00000-0  57305-4 0  9991
2 22626 082.5231 303.3360 0020260 145.8192 214.4334 14.87092075208115
Epoch (UTC): 27 August 2015 16:18:41
Eccentricity: 0.0020260
inclination: 82.5231°
perigee height: 593 km
apogee height: 621 km
right ascension of ascending node: 303.3360°
argument of perigee: 145.8192°
revolutions per day: 14.87092075
mean anomaly at epoch: 214.4334°
orbit number at epoch: 20811

The dashed part of the orbit path shows where the satellite is in the earth's shadow,  

DLR